Location: Écuvilly
(49.6505°N, 2.9206°E)
Time: 06:50:24
(UTC+00:00)

Cosmos 1763 Rocket - Pass Details

Date: 17 November 2025
Orbit: 728 x 774 km, 74.0° (Epoch: 10 December)

Event Time Altitude Azimuth Distance (km) Brightness Sun altitude
Rises 17:27:01 0° 335° (NNW) 3,243 6.9 -13.5°
Reaches altitude 10° 17:29:25 10° 333° (NNW) 2,306 6.1 -13.9°
Maximum altitude 17:34:38 74° 250° (WSW) 789 3.7 -14.7°
Drops below altitude 10° 17:39:44 10° 166° (SSE) 2,259 5.9 -15.5°
Sets 17:42:04 0° 164° (SSE) 3,172 6.7 -15.9°
